Avery Island, LA

1:56 PM CST on February 08, 2016 (GMT -0600)
Acadiana Regional

Weather History for KARA - July, 2013

Change the Weather History Date:

Tuesday, July 9, 2013

  Actual Average Record
Temperature  
Mean Temperature 85 °F 82 °F  
Max Temperature 93 °F 91 °F 98 °F (2000)
Min Temperature 76 °F 74 °F 69 °F (1974)
Degree Days  
Heating Degree Days 0 0  
Month to date heating degree days 0 0  
Since 1 June heating degree days 0 0  
Since 1 July heating degree days 0 0  
Cooling Degree Days 20 17  
Month to date cooling degree days 152 153  
Year to date cooling degree days 1296 1194  
Since 1 June cooling degree days 715 624  
Growing Degree Days 33 (Base 50)    
Moisture  
Dew Point 74 °F    
Average Humidity 73    
Maximum Humidity 94    
Minimum Humidity 52    
Precipitation  
Precipitation 0.03 in 0.21 in 1.64 in (1988)
Month to date precipitation 2.02 1.95  
Year to date precipitation 43.58 31.08  
Sea Level Pressure  
Sea Level Pressure 30.14 in    
Wind  
Wind Speed 4 mph (SSE)    
Max Wind Speed 14 mph    
Max Gust Speed 26 mph    
Visibility 10 miles    
Events Rain , Thunderstorm    
T = Trace of Precipitation, MM = Missing Value Source: NWS Daily Summary

Daily Weather History Graph

Daily Weather History Graph

Search for Another Location

Airport or City:

Trip Planner

Search our weather history database for the weather conditions in past years. The results will help you decide how hot, cold, wet, or windy it might be!

Date:

Astronomy

Jul. 09, 2013 Rise Set
Actual Time 6:13 AM CDT 8:11 PM CDT
Civil Twilight 5:46 AM CDT 8:38 PM CDT
Nautical Twilight 5:13 AM CDT 9:11 PM CDT
Astronomical Twilight 4:38 AM CDT 9:46 PM CDT
Moon 7:28 AM CDT (7/9) 9:00 PM CDT (7/9)
Length of Visible Light 14h 52m
Length of Day
13h 58m
New Moon, 2% of the Moon is Illuminated
Jul 9
New Moon
Jul 15
First Quarter
Jul 22
Full
Jul 29
Last Quarter
Aug 6
New

Hourly Weather History & Observations

Time (CDT) Temp. Heat Index Dew Point Humidity Pressure Visibility Wind Dir Wind Speed Gust Speed Precip Events Conditions
12:53 AM 79.0 °F - 75.0 °F 88% 30.14 in 10.0 mi Calm Calm - N/A   Clear
1:53 AM 78.1 °F - 75.0 °F 90% 30.14 in 10.0 mi East 4.6 mph - N/A   Clear
2:53 AM 77.0 °F - 73.9 °F 90% 30.13 in 9.0 mi Calm Calm - N/A   Clear
3:53 AM 75.9 °F - 73.9 °F 94% 30.14 in 10.0 mi SE 3.5 mph - N/A   Clear
4:53 AM 75.9 °F - 73.9 °F 94% 30.14 in 9.0 mi Calm Calm - N/A   Clear
5:53 AM 75.9 °F - 73.0 °F 91% 30.15 in 10.0 mi Calm Calm - N/A   Clear
6:53 AM 77.0 °F - 73.9 °F 90% 30.16 in 10.0 mi Calm Calm - N/A   Clear
7:53 AM 81.0 °F 87.3 °F 75.9 °F 85% 30.17 in 10.0 mi Calm Calm - N/A   Clear
8:53 AM 84.0 °F 93.7 °F 77.0 °F 79% 30.18 in 10.0 mi Calm Calm - N/A   Scattered Clouds
9:13 AM 84.2 °F 92.3 °F 75.2 °F 74% 30.19 in 10.0 mi Calm Calm - N/A   Mostly Cloudy
9:23 AM 84.2 °F 92.3 °F 75.2 °F 74% 30.19 in 10.0 mi Calm Calm - N/A   Mostly Cloudy
9:53 AM 84.9 °F 92.1 °F 73.9 °F 69% 30.19 in 10.0 mi Calm Calm - N/A   Overcast
10:19 AM 87.8 °F 97.6 °F 75.2 °F 66% 30.19 in 10.0 mi ESE 4.6 mph - N/A   Scattered Clouds
10:53 AM 88.0 °F 96.5 °F 73.9 °F 63% 30.19 in 10.0 mi ESE 5.8 mph - N/A   Partly Cloudy
11:53 AM 88.0 °F 95.6 °F 73.0 °F 61% 30.18 in 10.0 mi ESE 6.9 mph - N/A   Scattered Clouds
12:53 PM 91.9 °F 100.7 °F 73.0 °F 54% 30.17 in 10.0 mi ESE 8.1 mph - N/A   Scattered Clouds
1:53 PM 91.0 °F 97.6 °F 71.1 °F 52% 30.15 in 10.0 mi ESE 4.6 mph - N/A   Scattered Clouds
2:53 PM 91.9 °F 98.4 °F 71.1 °F 50% 30.14 in 10.0 mi Calm Calm - N/A   Clear
3:53 PM 91.0 °F 102.9 °F 75.9 °F 61% 30.12 in 10.0 mi South 11.5 mph - N/A   Partly Cloudy
4:24 PM 91.4 °F 102.5 °F 75.2 °F 59% 30.11 in 10.0 mi South 11.5 mph - N/A Thunderstorm Thunderstorm
4:53 PM 84.0 °F 93.7 °F 77.0 °F 79% 30.11 in 4.0 mi East 4.6 mph - 0.02 in Rain , Thunderstorm Thunderstorms and Rain
5:53 PM 88.0 °F 97.5 °F 75.0 °F 65% 30.09 in 10.0 mi SSW 9.2 mph - 0.01 in Thunderstorm Thunderstorm
6:21 PM 87.8 °F 95.6 °F 73.4 °F 62% 30.09 in 10.0 mi South 9.2 mph - N/A   Clear
6:53 PM 87.1 °F 96.3 °F 75.0 °F 67% 30.10 in 10.0 mi SW 8.1 mph - N/A   Clear
7:53 PM 84.0 °F 91.9 °F 75.0 °F 74% 30.09 in 10.0 mi SSW 6.9 mph - N/A   Clear
8:53 PM 81.0 °F 86.7 °F 75.0 °F 82% 30.09 in 10.0 mi SSW 5.8 mph - N/A   Clear
9:53 PM 80.1 °F 85.1 °F 75.0 °F 85% 30.10 in 10.0 mi South 3.5 mph - N/A   Clear
10:53 PM 80.1 °F 85.1 °F 75.0 °F 85% 30.11 in 10.0 mi South 4.6 mph - N/A   Clear
11:53 PM 79.0 °F - 75.0 °F 88% 30.11 in 10.0 mi Calm Calm - N/A   Clear